Regional Weather Roundup
Issued by NWS

Home | Current Version | Previous Version | Text Only | Print | Product List | Glossary On
Versions: 1 2 3 4 5 6 7 8 9 10 11 12 13 14 15 16 17 18 19 20 21 22 23 24 25 26 27 28 29 30 31 32 33 34 35 36 37 38 39 40 41 42 43 44 45 46 47 48 49 50
252
ASUS44 KBMX 232310
RWRAL

ALABAMA REGIONAL WEATHER ROUNDUP
NATIONAL WEATHER SERVICE BIRMINGHAM AL
600 PM CDT THU MAR 23 2017

NOTE: "FAIR" INDICATES FEW OR NO CLOUDS BELOW 12,000 FEET
WITH NO SIGNIFICANT WEATHER AND/OR OBSTRUCTIONS TO VISIBILITY.

THE REMARK "TC" DENOTES TEMPERATURE IN DEGREES CELSIUS.

ALZ001>011-014-016>018-020-240000-
NORTH ALABAMA

CITY           SKY/WX    TMP DP  RH WIND       PRES   REMARKS
MUSCLE SHOALS  SUNNY     76  50  40 SE10      30.20S
HUNTSVILLE     MOSUNNY   76  48  37 SE17      30.22S
DECATUR        SUNNY     70  52  52 SE12      30.22F
HALEYVILLE     FAIR      76  51  41 S10       30.23R
GADSDEN        MOSUNNY   72  50  45 SE13      30.27R
$$

ALZ012-013-022-023-030>036-040>044-240000-
WEST CENTRAL ALABAMA

CITY           SKY/WX    TMP DP  RH WIND       PRES   REMARKS
TUSCALOOSA     SUNNY     79  52  38 S10       30.19S
$$

ALZ015-024>027-033>036-040>044-240000-
CENTRAL ALABAMA

CITY           SKY/WX    TMP DP  RH WIND       PRES   REMARKS
BIRMINGHAM     PTSUNNY   75  50  41 SE9       30.26S
MONTGOMERY     CLOUDY    72  54  53 E17       30.27R
SHELBY CO ARPT PTSUNNY   74  54  49 SE9       30.24S
MAXWELL AFB    CLOUDY    71  55  56 E16       30.27R
GREENVILLE     PTSUNNY   74  55  51 SE14      30.24R
$$

ALZ019-021-028-029-037-038-045>048-240000-
EAST CENTRAL ALABAMA

CITY           SKY/WX    TMP DP  RH WIND       PRES   REMARKS
ANNISTON       PTSUNNY   69  50  50 SE12      30.29R
ALEXANDER CITY CLOUDY    67  51  56 SE8       30.31R HAZE
AUBURN         CLOUDY    64  50  60 SE7       30.34R
$$

ALZ051>064-240000-
SOUTHWEST ALABAMA

CITY           SKY/WX    TMP DP  RH WIND       PRES   REMARKS
MOBILE         MOSUNNY   74  61  63 SE15      30.22S
BROOKLEY FIELD MOSUNNY   74  64  71 SE16      30.23R
EVERGREEN      MOSUNNY   78  57  48 E15       30.22R
$$

ALZ049-050-065>069-240000-
SOUTHEAST ALABAMA

CITY           SKY/WX    TMP DP  RH WIND       PRES   REMARKS
DOTHAN         CLOUDY    69  57  65 E10       30.32S
OZARK          PTSUNNY   70  56  61 E13       30.28R
TROY           CLOUDY    68  56  65 E9        30.29R
EUFAULA        CLOUDY    68  52  56 E9        30.32R
$$




USA.gov is the U.S. government's official web portal to all federal, state and local government web resources and services.